Weather History for KGTF - June, 2014

Change the Weather History Date:

Saturday, June 14, 2014

  Actual Average Record
Temperature  
Mean Temperature 47 °F 59 °F  
Max Temperature 53 °F 73 °F 98 °F (1987)
Min Temperature 41 °F 46 °F 36 °F (1945)
Degree Days  
Heating Degree Days 18 7  
Month to date heating degree days 122 112  
Since 1 June heating degree days 122 112  
Since 1 July heating degree days 7910 7647  
Cooling Degree Days 0 1  
Month to date cooling degree days 0 10  
Year to date cooling degree days 0 17  
Since 1 June cooling degree days 0 10  
Moisture  
Dew Point 45 °F    
Average Humidity 87    
Maximum Humidity 100    
Minimum Humidity 74    
Precipitation  
Precipitation 0.18 in 0.08 in 0.80 in (1943)
Month to date precipitation 1.62 1.38  
Year to date precipitation 8.73 7.11  
Snow  
Snow 0.00 in 0.10 in T in (1945)
Month to date snowfall 0.0 0.3  
Since 1 June snowfall 0.0 0.3  
Since 1 July snowfall 76.4 63.5  
Snow Depth 0.00 in    
Sea Level Pressure  
Sea Level Pressure 29.84 in    
Wind  
Wind Speed 9 mph (West)    
Max Wind Speed 21 mph    
Max Gust Speed 25 mph    
Visibility 9 miles    
Events Rain    
T = Trace of Precipitation, MM = Missing Value Source: NWS Daily Summary

Daily Weather History Graph

Daily Weather History Graph

Search for Another Location

Airport or City:

Trip Planner

Search our weather history database for the weather conditions in past years. The results will help you decide how hot, cold, wet, or windy it might be!

Date:

Astronomy

Jun. 14, 2014 Rise Set
Actual Time 5:27 AM MDT 9:24 PM MDT
Civil Twilight 4:47 AM MDT 10:04 PM MDT
Nautical Twilight 3:51 AM MDT 11:00 PM MDT
Astronomical Twilight 2:25 AM MDT 12:27 AM MDT
Moon 10:40 PM MDT (6/14) 7:23 AM MDT (6/14)
Length of Visible Light 17h 17m
Length of Day
15h 56m
Waning Gibbous, 96% of the Moon is Illuminated
Jun 14
Waning Gibbous
Jun 19
Last Quarter
Jun 27
New
Jul 5
First Quarter
Jul 12
Full

Hourly Weather History & Observations

Time (MDT) Temp. Windchill Dew Point Humidity Pressure Visibility Wind Dir Wind Speed Gust Speed Precip Events Conditions
12:53 AM 50.0 °F - 42.1 °F 74% 29.79 in 10.0 mi Calm Calm - N/A   Overcast
1:53 AM 48.9 °F - 43.0 °F 80% 29.80 in 10.0 mi Calm Calm - N/A   Overcast
2:53 AM 48.0 °F - 43.0 °F 83% 29.79 in 10.0 mi WNW 6.9 mph - N/A   Mostly Cloudy
3:53 AM 45.0 °F 41.2 °F 42.1 °F 90% 29.81 in 10.0 mi West 6.9 mph - N/A   Clear
4:53 AM 41.0 °F 37.1 °F 39.9 °F 96% 29.82 in 10.0 mi SW 5.8 mph - N/A   Clear
5:53 AM 43.0 °F 38.8 °F 41.0 °F 93% 29.82 in 10.0 mi West 6.9 mph - N/A   Scattered Clouds
6:53 AM 46.9 °F - 43.0 °F 86% 29.81 in 10.0 mi West 6.9 mph - N/A   Partly Cloudy
7:53 AM 46.9 °F - 43.0 °F 86% 29.81 in 10.0 mi WSW 4.6 mph - N/A   Overcast
8:53 AM 48.0 °F - 44.1 °F 86% 29.82 in 10.0 mi West 6.9 mph - 0.00 in Rain Light Rain
9:53 AM 48.9 °F - 45.0 °F 86% 29.83 in 10.0 mi WNW 10.4 mph - 0.00 in Rain Light Rain
10:53 AM 48.9 °F - 43.0 °F 80% 29.83 in 10.0 mi West 13.8 mph - 0.00 in Rain Light Rain
11:53 AM 48.9 °F - 46.0 °F 90% 29.83 in 7.0 mi NW 11.5 mph - 0.02 in Rain Light Rain
12:07 PM 48.2 °F - 46.4 °F 93% 29.82 in 7.0 mi WNW 10.4 mph - 0.01 in Rain Light Rain
12:14 PM 48.2 °F - 46.4 °F 93% 29.82 in 7.0 mi WNW 9.2 mph - 0.01 in Rain Light Rain
12:21 PM 48.2 °F - 46.4 °F 93% 29.82 in 10.0 mi West 10.4 mph - 0.01 in Rain Light Rain
12:53 PM 48.9 °F - 46.0 °F 90% 29.84 in 10.0 mi WNW 11.5 mph - 0.01 in Rain Light Rain
1:19 PM 48.2 °F - 46.4 °F 93% 29.83 in 7.0 mi WNW 12.7 mph - 0.01 in Rain Light Rain
1:53 PM 50.0 °F - 46.9 °F 89% 29.84 in 7.0 mi WNW 12.7 mph - 0.02 in Rain Light Rain
2:53 PM 51.8 °F - 46.4 °F 82% 29.83 in 10.0 mi WNW 15.0 mph 20.7 mph N/A Rain Light Rain
3:53 PM 50.0 °F - 46.9 °F 89% 29.86 in 10.0 mi WNW 15.0 mph - 0.03 in Rain Light Rain
4:53 PM 53.1 °F - 46.9 °F 80% 29.87 in 10.0 mi West 15.0 mph - 0.00 in   Mostly Cloudy
5:53 PM 52.0 °F - 45.0 °F 77% 29.87 in 10.0 mi West 11.5 mph - 0.00 in   Overcast
6:34 PM 50.0 °F - 48.2 °F 94% 29.85 in 4.0 mi WNW 5.8 mph - 0.03 in Rain Rain
6:53 PM 51.1 °F - 48.0 °F 89% 29.87 in 10.0 mi West 6.9 mph - 0.04 in Rain Light Rain
7:07 PM 50.0 °F - 46.4 °F 87% 29.86 in 10.0 mi NW 9.2 mph - 0.01 in Rain Light Rain
7:53 PM 50.0 °F - 46.0 °F 86% 29.88 in 10.0 mi West 5.8 mph - 0.01 in   Overcast
8:21 PM 51.8 °F - 48.2 °F 88% 29.86 in 10.0 mi WSW 3.5 mph - N/A   Overcast
8:44 PM 48.2 °F - 48.2 °F 100% 29.86 in 10.0 mi SW 4.6 mph - N/A   Scattered Clouds
8:53 PM 48.9 °F - 48.0 °F 97% 29.88 in 10.0 mi SW 5.8 mph - N/A   Partly Cloudy
9:53 PM 48.0 °F - 46.9 °F 96% 29.89 in 10.0 mi SW 5.8 mph - 0.00 in Rain Light Rain
10:53 PM 46.9 °F - 46.0 °F 97% 29.88 in 10.0 mi SSW 8.1 mph - 0.00 in   Overcast
11:53 PM 48.0 °F - 46.9 °F 96% 29.87 in 10.0 mi WSW 4.6 mph - N/A   Overcast